EW7069 Weather Reports


Display with metric or nautical units.
time (UTC)temp
F
wind
direction
speed
MPH
gust
MPH
rain 1hr
in
rain 24hr
in
rain mn
in
humidity
%
barometer
mb
20260901070002 72 1 1.0 1.0 0.00 0.09 0.00 74 1001.7
20260901065003 72 1 1.0 1.0 0.00 0.09 0.00 74 1001.5
20260901063003 72 1 1.0 1.0 0.00 0.09 0.00 74 1001.3
20260901061002 72 1 1.0 1.0 0.00 0.09 0.00 74 1001.3
20260901060002 72 1 1.0 1.0 0.00 0.09 0.00 74 1001.0
20260901055002 72 1 1.0 1.0 0.00 0.09 0.00 74 1001.4
20260901053002 72 1 1.0 1.0 0.00 0.09 0.00 74 1001.4
20260901052003 72 1 1.0 1.0 0.00 0.09 0.00 74 1000.5
20260901051002 72 1 1.0 1.0 0.00 0.09 0.00 74 1000.6
20260901050003 72 1 1.0 1.0 0.00 0.09 0.00 74 1000.4
20260901045003 72 1 1.0 1.0 0.00 0.09 0.00 74 1000.2
20260901043002 72 1 1.0 1.0 0.00 0.09 0.00 74 999.9
20260901042003 72 1 1.0 1.0 0.00 0.09 0.00 74 999.8
20260901041002 72 1 1.0 1.0 0.00 0.09 0.00 74 999.1
20260901040003 72 1 1.0 1.0 0.00 0.09 0.00 74 999.2
20260901035003 72 1 1.0 1.0 0.00 0.09 0.09 74 998.6
20260901034003 72 1 1.0 1.0 0.00 0.09 0.09 74 998.8
20260901030002 72 1 1.0 1.0 0.00 0.09 0.09 74 997.6
20260901025002 72 1 1.0 1.0 0.00 0.09 0.09 74 997.8
20260901024002 72 1 1.0 1.0 0.00 0.09 0.09 74 997.0
20260901023003 72 1 1.0 1.0 0.00 0.09 0.09 74 997.4
20260901022002 72 1 1.0 1.0 0.00 0.09 0.09 74 997.0
20260901021002 72 1 1.0 1.0 0.00 0.09 0.09 74 997.5
20260901020003 72 1 1.0 1.0 0.00 0.09 0.09 74 997.2
20260901015002 72 1 1.0 1.0 0.00 0.09 0.09 74 997.3
20260901014002 72 1 1.0 1.0 0.00 0.09 0.09 74 997.4
20260901013003 72 1 1.0 1.0 0.00 0.09 0.09 74 997.0
20260901012002 72 1 1.0 1.0 0.00 0.09 0.09 74 997.6
20260901011004 72 1 1.0 1.0 0.00 0.09 0.09 74 996.5
20260901010003 72 1 1.0 1.0 0.00 0.09 0.09 74 1005.7
20260901005002 72 1 1.0 1.0 0.00 0.09 0.09 74 996.6
20260901004003 72 1 1.0 1.0 0.00 0.09 0.09 74 996.9
20260901003003 72 1 1.0 1.0 0.00 0.09 0.09 74 997.4
20260901002002 72 1 1.0 1.0 0.00 0.09 0.09 74 997.9
20260901001003 72 1 1.0 1.0 0.00 0.09 0.09 74 998.5
20260901000003 72 1 1.0 1.0 0.00 0.09 0.09 74 999.1
20260831235002 72 1 1.0 1.0 0.00 0.09 0.09 74 999.9
20260831234003 72 1 1.0 1.0 0.00 0.09 0.09 74 1000.8
20260831233002 72 1 1.0 1.0 0.00 0.09 0.09 74 1001.9
20260831232002 72 1 1.0 1.0 0.00 0.09 0.09 74 1002.3
20260831230003 72 1 1.0 1.0 0.00 0.09 0.09 74 1002.4
20260831225002 72 1 1.0 1.0 0.00 0.09 0.09 74 1000.6
20260831223003 72 1 1.0 1.0 0.00 0.09 0.09 74 1001.2
20260831222002 72 1 1.0 1.0 0.00 0.09 0.09 74 1001.7
20260831221003 72 1 1.0 1.0 0.01 0.09 0.09 74 1002.4
20260831215002 72 1 1.0 1.0 0.02 0.09 0.09 74 1003.9
20260831214003 72 1 1.0 1.0 0.05 0.09 0.09 74 1004.6
20260831213002 72 1 1.0 1.0 0.07 0.09 0.09 74 1005.2
20260831212003 72 1 1.0 1.0 0.08 0.09 0.09 74 1006.9
20260831211003 73 1 1.0 3.0 0.08 0.08 0.08 73 1008.4
20260831210004 73 1 0.0 1.0 0.07 0.07 0.07 72 1009.5
20260831205003 74 1 0.0 2.0 0.07 0.07 0.07 70 1002.3
20260831203003 77 0 0.0 0.0 0.02 0.02 0.02 60 1007.5
20260831202004 79 0 0.0 0.0 0.01 0.01 0.01 55 1007.6
20260831200004 85 1 2.0 3.0 0.00 0.00 0.00 43 1006.9
20260831195004 85 1 2.0 3.0 0.00 0.00 0.00 43 1006.4
20260831194003 85 1 3.0 5.0 0.00 0.00 0.00 43 1006.3
20260831193002 86 1 2.0 2.0 0.00 0.01 0.00 43 1006.0
20260831192003 87 1 7.0 7.0 0.00 0.01 0.00 41 1005.7
20260831191002 87 1 5.0 7.0 0.00 0.01 0.00 41 1005.1
20260831190003 87 1 3.0 6.0 0.00 0.01 0.00 42 1004.7
20260831185002 87 1 5.0 7.0 0.00 0.01 0.00 42 1004.0
20260831184003 78 135 2.0 2.0 0.00 0.01 0.00 55 1004.3
20260831183003 78 135 2.0 2.0 0.00 0.01 0.00 55 1004.2
20260831182003 78 135 2.0 2.0 0.00 0.01 0.00 55 1004.8
20260831181003 78 135 2.0 2.0 0.00 0.01 0.00 55 1004.4
20260831180003 78 135 2.0 2.0 0.00 0.01 0.00 55 1004.2
20260831175003 78 135 2.0 2.0 0.00 0.01 0.00 55 1003.9
20260831174003 78 135 2.0 2.0 0.00 0.01 0.00 55 1003.5
20260831173002 78 135 2.0 2.0 0.00 0.01 0.00 55 1003.3
20260831172003 78 135 2.0 2.0 0.00 0.01 0.00 55 1003.2
20260831171003 78 135 2.0 2.0 0.00 0.01 0.00 55 1002.9
20260831170004 78 135 2.0 2.0 0.00 0.01 0.00 55 1002.6
20260831165003 78 135 2.0 2.0 0.00 0.01 0.00 55 1002.6
20260831164003 78 135 2.0 2.0 0.00 0.01 0.00 55 1002.5
20260831162003 78 135 2.0 2.0 0.00 0.27 0.00 55 1002.3
20260831161003 78 135 2.0 2.0 0.00 0.27 0.00 55 1001.9
20260831160003 78 135 2.0 2.0 0.00 0.27 0.00 55 1001.7
20260831155003 78 135 2.0 2.0 0.00 0.27 0.00 55 1001.3
20260831153003 78 135 2.0 2.0 0.00 0.27 0.00 55 1010.1
20260831152003 78 135 2.0 2.0 0.00 0.27 0.00 55 1010.1
20260831150004 78 135 2.0 2.0 0.00 0.27 0.00 55 1009.6
20260831145003 78 135 2.0 2.0 0.00 0.27 0.00 55 1009.5
20260831144004 78 135 2.0 2.0 0.00 0.27 0.00 55 1009.4
20260831143003 78 135 2.0 2.0 0.00 0.27 0.00 55 1009.1
20260831142003 78 135 2.0 2.0 0.00 0.27 0.00 55 1008.9
20260831135003 78 135 2.0 2.0 0.00 0.27 0.00 55 1008.2
20260831134003 78 135 2.0 2.0 0.00 0.27 0.00 55 1008.1
20260831133004 78 135 2.0 2.0 0.00 0.27 0.00 55 1008.0
20260831132003 78 135 2.0 2.0 0.00 0.27 0.00 55 1007.7
20260831131003 78 135 2.0 2.0 0.00 0.27 0.00 55 1007.5
20260831130004 78 135 2.0 2.0 0.00 0.27 0.00 55 1007.3
20260831123004 78 135 2.0 2.0 0.00 0.31 0.00 55 1006.8
20260831122003 78 135 2.0 2.0 0.00 0.32 0.00 55 1006.5
20260831121003 78 135 2.0 2.0 0.00 0.33 0.00 55 1006.2
20260831120004 78 135 2.0 2.0 0.00 0.33 0.00 55 1006.0
20260831115003 78 135 2.0 2.0 0.00 0.34 0.00 55 1005.6
20260831113003 78 135 2.0 2.0 0.00 0.34 0.00 55 1004.9
20260831112003 78 135 2.0 2.0 0.00 0.34 0.00 55 1004.4
20260831110003 78 135 2.0 2.0 0.00 0.34 0.00 55 1003.3
20260831104003 78 135 2.0 2.0 0.00 0.34 0.00 55 1002.1
20260831103003 78 135 2.0 2.0 0.00 0.34 0.00 55 1002.9
20260831102004 78 135 2.0 2.0 0.00 0.34 0.00 55 1002.7
20260831100004 78 135 2.0 2.0 0.00 0.34 0.00 55 1003.2
20260831095004 78 135 2.0 2.0 0.00 0.34 0.00 55 1003.9
20260831093002 78 135 2.0 2.0 0.00 0.34 0.00 55 1003.6
20260831092002 78 135 2.0 2.0 0.00 0.34 0.00 55 1003.4
20260831091002 78 135 2.0 2.0 0.00 0.34 0.00 55 1003.0
20260831090002 78 135 2.0 2.0 0.00 0.34 0.00 55 1003.7
20260831085003 78 135 2.0 2.0 0.00 0.34 0.00 55 1002.9
20260831084002 78 135 2.0 2.0 0.00 0.34 0.00 55 1003.3
20260831083002 78 135 2.0 2.0 0.00 0.34 0.00 55 1003.1
20260831082002 78 135 2.0 2.0 0.00 0.35 0.00 55 1002.7
20260831081002 78 135 2.0 2.0 0.00 0.35 0.00 55 1002.9
20260831075002 78 135 2.0 2.0 0.00 0.35 0.00 55 1002.9
20260831074002 78 135 2.0 2.0 0.00 0.35 0.00 55 1002.5
20260831073003 78 135 2.0 2.0 0.00 0.35 0.00 55 1003.0
20260831072002 78 135 2.0 2.0 0.00 0.35 0.00 55 1002.5
20260831071002 78 135 2.0 2.0 0.00 0.35 0.00 55 1002.8